FW0960 Weather Reports


time (UTC)temp
C
wind
direction
speed
KPH
gust
KPH
rain 1hr
cm
rain 24hr
cm
rain mn
cm
humidity
%
barometer
mb
20260903165717 28 166 1.6 6.4 0.00 0.10 0.10 84 1016.3
20260903165214 28 122 1.6 4.8 0.00 0.10 0.10 84 1016.4
20260903164710 28 104 1.6 4.8 0.00 0.10 0.10 84 1016.6
20260903163705 28 169 1.6 6.4 0.00 0.10 0.10 85 1016.7
20260903163210 28 182 1.6 3.2 0.00 0.10 0.10 84 1016.6
20260903162705 28 140 1.6 4.8 0.00 0.10 0.10 85 1016.7
20260903162210 28 192 1.6 8.0 0.00 0.10 0.10 84 1016.5
20260903161704 28 118 1.6 8.0 0.00 0.10 0.10 83 1016.5
20260903161207 28 170 1.6 6.4 0.00 0.10 0.10 84 1016.5
20260903160707 28 170 1.6 3.2 0.00 0.10 0.10 84 1016.4
20260903155206 28 301 1.6 4.8 0.00 0.10 0.10 85 1016.3
20260903154710 28 286 1.6 4.8 0.00 0.10 0.10 86 1016.4
20260903154206 28 157 1.6 4.8 0.00 0.10 0.10 87 1016.3
20260903153705 28 146 0.0 4.8 0.00 0.10 0.10 88 1016.4
20260903153213 27 148 0.0 4.8 0.00 0.10 0.10 88 1016.4
20260903152225 27 144 0.0 4.8 0.00 0.10 0.10 89 1016.5
20260903151142 27 155 0.0 6.4 0.00 0.10 0.10 91 1016.4
20260903150635 27 153 0.0 8.0 0.00 0.10 0.10 91 1016.4
20260903150132 26 159 1.6 8.0 0.00 0.10 0.10 92 1016.4
20260903145635 26 160 0.0 4.8 0.00 0.10 0.10 93 1016.4
20260903145136 26 173 0.0 4.8 0.00 0.10 0.10 94 1016.6
20260903144635 26 172 0.0 4.8 0.00 0.10 0.10 95 1016.7
20260903144130 26 165 0.0 3.2 0.00 0.10 0.10 96 1016.6
20260903143634 25 165 0.0 3.2 0.00 0.10 0.10 95 1016.7
20260903143134 25 190 0.0 3.2 0.00 0.10 0.10 96 1016.8
20260903142628 25 196 0.0 1.6 0.00 0.10 0.10 98 1016.9
20260903141132 25 196 0.0 0.0 0.00 0.10 0.10 97 1016.7
20260903140630 25 196 0.0 0.0 0.00 0.10 0.10 97 1016.8
20260903135129 24 196 0.0 0.0 0.00 0.10 0.10 98 1016.7
20260903134632 24 196 0.0 0.0 0.00 0.10 0.10 99 1017.0
20260903134131 24 196 0.0 0.0 0.00 0.10 0.10 99 1016.9
20260903133625 24 196 0.0 0.0 0.00 0.10 0.10 100 1017.1
20260903133123 24 196 0.0 0.0 0.00 0.10 0.10 100 1017.2
20260903132117 23 196 0.0 0.0 0.00 0.10 0.10 100 1017.4
20260903131621 23 196 0.0 0.0 0.00 0.10 0.10 100 1017.4
20260903131119 23 196 0.0 0.0 0.00 0.10 0.10 100 1017.4
20260903130112 24 196 0.0 0.0 0.00 0.10 0.10 100 1018.0
20260903125613 23 196 0.0 0.0 0.00 0.10 0.10 100 1018.1
20260903124116 23 196 0.0 0.0 0.00 0.10 0.10 100 1018.4
20260903123619 23 196 0.0 0.0 0.00 0.10 0.10 100 1018.7
20260903123108 23 196 0.0 0.0 0.00 0.10 0.10 100 1018.7
20260903122616 23 196 0.0 0.0 0.00 0.10 0.10 100 1018.8
20260903122108 23 196 0.0 0.0 0.00 0.10 0.10 100 1018.9
20260903121105 23 196 0.0 0.0 0.00 0.10 0.10 100 1018.8
20260903120609 23 196 0.0 0.0 0.00 0.10 0.10 100 1018.8
20260903120105 23 196 0.0 0.0 0.00 0.10 0.10 100 1018.8
20260903114106 23 196 0.0 0.0 0.00 0.10 0.10 100 1018.7
20260903113608 23 196 0.0 0.0 0.00 0.10 0.10 100 1018.5
20260903113109 23 196 0.0 0.0 0.00 0.10 0.10 100 1018.4
20260903112107 23 196 0.0 1.6 0.00 0.10 0.10 100 1018.4
20260903111607 23 196 0.0 1.6 0.00 0.10 0.10 100 1018.1
20260903111109 23 196 0.0 0.0 0.00 0.10 0.10 100 1018.3
20260903110606 23 196 0.0 0.0 0.03 0.10 0.10 100 1018.2
20260903110105 23 196 0.0 0.0 0.03 0.10 0.10 100 1018.1
20260903105609 23 196 0.0 0.0 0.03 0.10 0.10 100 1018.2
20260903105107 23 196 0.0 0.0 0.03 0.10 0.10 100 1018.1
20260903103602 23 196 0.0 1.6 0.03 0.10 0.10 100 1018.1
20260903103103 23 196 1.6 3.2 0.03 0.10 0.10 100 1018.1
20260903102102 23 192 1.6 3.2 0.03 0.10 0.10 100 1018.0
20260903101056 23 192 0.0 0.0 0.03 0.10 0.08 100 1017.5
20260903100552 23 192 0.0 0.0 0.00 0.08 0.08 100 1017.4
20260903100044 23 192 0.0 0.0 0.00 0.08 0.08 100 1017.4
20260903095541 23 192 0.0 0.0 0.00 0.08 0.08 100 1017.5
20260903095045 23 192 0.0 0.0 0.00 0.08 0.08 100 1017.4
20260903094539 23 192 0.0 0.0 0.00 0.08 0.08 100 1017.5
20260903094035 23 192 0.0 0.0 0.00 0.08 0.08 100 1017.5
20260903093541 23 192 0.0 0.0 0.00 0.08 0.08 100 1017.4
20260903093042 23 192 0.0 0.0 0.03 0.08 0.08 100 1017.2
20260903092535 23 192 0.0 0.0 0.03 0.08 0.08 100 1017.3
20260903092034 23 192 0.0 0.0 0.03 0.08 0.08 100 1017.5
20260903091533 23 192 0.0 0.0 0.05 0.08 0.08 100 1017.4
20260903091034 23 192 0.0 0.0 0.08 0.08 0.08 100 1017.3
20260903090535 23 192 0.0 0.0 0.08 0.08 0.08 100 1017.2
20260903090031 23 192 0.0 0.0 0.08 0.08 0.08 100 1017.2
20260903085532 23 192 0.0 0.0 0.08 0.08 0.08 100 1017.2
20260903084534 23 192 0.0 0.0 0.08 0.08 0.08 100 1017.5
20260903084035 23 192 0.0 0.0 0.08 0.08 0.08 100 1017.7
20260903083537 23 192 0.0 1.6 0.08 0.08 0.08 100 1017.7
20260903083033 23 192 0.0 1.6 0.05 0.05 0.05 100 1017.9
20260903082524 23 192 0.0 0.0 0.05 0.05 0.05 100 1017.6
20260903082030 23 192 0.0 1.6 0.05 0.05 0.05 100 1017.4
20260903081523 23 192 0.0 1.6 0.03 0.03 0.03 100 1017.4
20260903081021 23 192 0.0 3.2 0.00 0.00 0.00 100 1017.8
20260903080021 23 192 1.6 3.2 0.00 0.00 0.00 100 1018.2
20260903075022 23 196 0.0 3.2 0.00 0.00 0.00 100 1018.2
20260903074517 23 204 0.0 1.6 0.00 0.00 0.00 100 1017.9
20260903074020 23 204 1.6 1.6 0.00 0.00 0.00 100 1017.7
20260903073516 23 204 0.0 1.6 0.00 0.00 0.00 100 1017.6
20260903072518 23 204 0.0 0.0 0.00 0.00 0.00 100 1017.0
20260903072010 23 204 0.0 0.0 0.00 0.00 0.00 100 1016.7
20260903070506 23 204 0.0 1.6 0.00 0.00 0.00 100 1016.7
20260903070036 23 204 0.0 0.0 0.00 0.00 0.00 100 1016.5
20260903065006 23 204 0.0 0.0 0.00 0.00 0.00 100 1016.5
20260903064506 23 204 0.0 0.0 0.00 0.00 0.00 100 1016.7
20260903064002 23 204 0.0 0.0 0.00 0.00 0.00 100 1016.8
20260903063458 23 204 0.0 0.0 0.00 0.00 0.00 100 1016.9
20260903062455 23 204 0.0 0.0 0.00 0.00 0.00 99 1016.2
20260903061950 23 204 0.0 0.0 0.00 0.00 0.00 99 1016.2
20260903061447 23 204 0.0 0.0 0.00 0.00 0.00 99 1016.7
20260903060946 23 204 0.0 0.0 0.00 0.00 0.00 99 1016.9
20260903055946 23 204 0.0 0.0 0.00 0.00 0.00 99 1017.1
20260903055447 23 204 0.0 0.0 0.00 0.00 0.00 99 1017.1
20260903054944 23 204 0.0 0.0 0.00 0.00 0.00 99 1017.3
20260903054440 23 204 0.0 0.0 0.00 0.00 0.00 99 1017.2
20260903053936 23 204 0.0 0.0 0.00 0.00 0.00 99 1017.4
20260903053438 23 204 0.0 0.0 0.00 0.03 0.00 99 1017.6
20260903052934 23 204 0.0 0.0 0.00 0.03 0.00 99 1017.5
20260903051935 23 204 0.0 0.0 0.00 0.03 0.00 99 1017.7
20260903051434 23 204 0.0 0.0 0.00 0.03 0.00 99 1017.7
20260903050941 23 204 0.0 0.0 0.00 0.05 0.00 99 1017.7
20260903050437 23 204 0.0 0.0 0.00 0.10 0.00 99 1018.0
20260903045933 23 204 0.0 0.0 0.00 0.33 0.00 99 1017.8
20260903045430 23 204 0.0 0.0 0.00 1.14 0.00 99 1017.6
20260903044932 23 204 0.0 0.0 0.00 1.70 0.00 99 1017.6
20260903044428 23 204 0.0 0.0 0.00 2.26 0.00 99 1017.5
20260903043929 23 204 0.0 0.0 0.00 2.41 0.00 99 1017.4
20260903042926 23 204 0.0 0.0 0.00 2.41 0.00 99 1017.8
20260903042420 23 204 0.0 0.0 0.00 2.41 0.00 99 1018.0
20260903041924 23 204 0.0 0.0 0.00 2.41 0.00 99 1018.1
20260903041419 23 204 0.0 0.0 0.00 2.41 0.00 99 1018.2
20260903040918 23 204 0.0 0.0 0.00 2.41 0.00 99 1018.1
20260903040415 23 204 0.0 0.0 0.00 2.41 0.00 99 1018.0
20260903035917 23 204 0.0 0.0 0.00 2.41 2.41 99 1018.0
20260903035422 23 204 0.0 0.0 0.00 2.44 2.41 99 1017.9
20260903034918 23 204 0.0 0.0 0.00 2.44 2.41 99 1018.0
20260903034419 23 204 0.0 0.0 0.00 2.44 2.41 99 1017.9
20260903033916 23 204 0.0 0.0 0.00 2.46 2.41 99 1017.7
20260903033417 23 204 0.0 0.0 0.00 2.46 2.41 99 1017.7
20260903032920 23 204 0.0 0.0 0.00 2.51 2.41 99 1017.9
20260903032417 23 204 0.0 0.0 0.00 2.57 2.41 99 1017.9
20260903031916 23 204 0.0 0.0 0.00 2.57 2.41 99 1018.2
20260903031419 23 204 0.0 0.0 0.00 2.62 2.41 99 1018.0
20260903030916 23 204 0.0 0.0 0.00 2.62 2.41 99 1017.9
20260903025911 23 204 0.0 0.0 0.00 2.62 2.41 98 1018.1
20260903025416 23 204 0.0 0.0 0.00 2.62 2.41 98 1018.1
20260903024907 23 204 0.0 0.0 0.00 2.62 2.41 98 1018.2
20260903024423 23 204 0.0 0.0 0.00 2.62 2.41 98 1018.2
20260903022912 23 204 0.0 0.0 0.00 2.62 2.41 98 1017.9
20260903022413 23 204 0.0 0.0 0.00 2.62 2.41 98 1017.8
20260903021912 23 204 0.0 0.0 0.00 2.62 2.41 98 1017.8
20260903020404 23 204 0.0 0.0 0.00 2.62 2.41 98 1017.8
20260903015404 23 204 0.0 0.0 0.00 2.62 2.41 98 1018.0
20260903014900 23 204 0.0 0.0 0.00 2.62 2.41 98 1018.0
20260903013900 23 204 0.0 0.0 0.00 2.62 2.41 98 1018.0
20260903013357 23 204 0.0 0.0 0.00 2.62 2.41 98 1018.0
20260903011851 23 204 0.0 0.0 0.00 2.62 2.41 98 1018.1
20260903011352 23 204 0.0 0.0 0.00 2.62 2.41 98 1018.3
20260903010847 23 204 0.0 0.0 0.00 2.62 2.41 98 1018.4
20260903005342 23 204 0.0 0.0 0.00 2.62 2.41 97 1018.2
20260903004846 23 204 0.0 0.0 0.00 2.62 2.41 97 1018.1
20260903003834 24 204 0.0 0.0 0.00 2.62 2.41 97 1018.0
20260903002837 24 204 0.0 0.0 0.00 2.62 2.41 97 1017.8
20260903002338 24 204 0.0 0.0 0.00 2.62 2.41 97 1017.8
20260903001833 24 204 0.0 0.0 0.00 2.62 2.41 97 1017.8
20260903001337 24 204 0.0 0.0 0.00 2.62 2.41 97 1017.8
20260903000333 24 204 0.0 0.0 0.00 2.62 2.41 97 1017.9
20260902235835 24 204 0.0 1.6 0.00 2.62 2.41 97 1017.8
20260902235332 24 204 0.0 1.6 0.00 2.62 2.41 97 1017.6
20260902234832 24 204 0.0 1.6 0.00 2.62 2.41 97 1017.6
20260902233831 24 204 0.0 0.0 0.00 2.62 2.41 97 1017.9
20260902233333 24 204 0.0 0.0 0.00 2.62 2.41 97 1018.1
20260902232330 24 204 0.0 0.0 0.00 2.62 2.41 97 1017.9
20260902231837 24 204 0.0 1.6 0.00 2.62 2.41 97 1017.8
20260902231333 24 204 0.0 1.6 0.00 2.62 2.41 97 1017.8
20260902224830 24 204 0.0 0.0 0.00 2.62 2.41 97 1017.9
20260902223834 24 204 0.0 0.0 0.00 2.62 2.41 96 1017.8
20260902223331 24 204 0.0 1.6 0.00 2.62 2.41 97 1017.8
20260902222822 24 204 0.0 1.6 0.00 2.62 2.41 96 1017.9
20260902222316 24 204 0.0 1.6 0.00 2.62 2.41 96 1018.1
20260902221311 24 204 0.0 1.6 0.00 2.62 2.41 96 1018.5
20260902220811 24 204 0.0 1.6 0.00 2.62 2.41 96 1018.5
20260902220308 24 204 0.0 1.6 0.00 2.62 2.41 96 1018.5
20260902215306 24 204 0.0 1.6 0.00 2.62 2.41 96 1018.4
20260902214807 24 204 0.0 1.6 0.00 2.62 2.41 96 1018.4
20260902213809 24 204 0.0 0.0 0.00 2.62 2.41 96 1018.3
20260902213305 24 204 0.0 1.6 0.00 2.62 2.41 96 1018.4
20260902212805 24 204 0.0 1.6 0.00 2.62 2.41 96 1018.5
20260902211804 24 204 0.0 1.6 0.00 2.62 2.41 97 1018.6
20260902210801 24 204 0.0 3.2 0.00 2.62 2.41 98 1017.8
20260902210305 24 204 1.6 3.2 0.00 2.62 2.41 97 1018.3
20260902205306 24 212 0.0 3.2 0.00 2.62 2.41 97 1017.4
20260902204806 23 211 0.0 3.2 0.00 2.62 2.41 97 1017.3
20260902204304 23 211 0.0 1.6 0.00 2.62 2.41 97 1016.7
20260902203804 24 211 0.0 1.6 0.00 2.62 2.41 97 1016.6
20260902203302 23 211 0.0 1.6 0.00 2.62 2.41 97 1016.7
20260902202805 23 211 0.0 1.6 0.00 2.62 2.41 97 1016.7
20260902202308 23 211 0.0 3.2 0.00 2.62 2.41 96 1016.6
20260902201302 24 206 1.6 3.2 0.00 2.62 2.41 95 1016.4
20260902200803 24 206 0.0 3.2 0.00 2.62 2.41 95 1016.8
20260902200304 24 205 0.0 3.2 0.00 2.62 2.41 94 1017.1
20260902195803 24 204 0.0 3.2 0.00 2.62 2.41 94 1017.4
20260902195306 24 204 0.0 4.8 0.00 2.62 2.41 94 1018.1
20260902193802 24 198 1.6 3.2 0.00 2.62 2.41 93 1019.5
20260902193307 24 198 1.6 3.2 0.00 2.62 2.41 93 1020.3
20260902191804 25 200 0.0 4.8 0.00 2.62 2.41 92 1020.2
20260902191305 25 5 0.0 3.2 0.00 2.62 2.41 91 1019.7
20260902190803 25 5 1.6 3.2 0.00 2.62 2.41 91 1019.3
20260902190306 25 5 1.6 3.2 0.00 2.62 2.41 91 1019.5
20260902185808 25 5 1.6 3.2 0.00 2.62 2.41 91 1020.0
20260902185301 25 5 1.6 3.2 0.00 2.62 2.41 91 1020.0
20260902184801 25 9 1.6 3.2 0.00 2.62 2.41 91 1019.8
20260902184307 25 9 0.0 3.2 0.00 2.62 2.41 91 1019.5
20260902183757 25 0 0.0 3.2 0.00 2.62 2.41 91 1019.6
20260902183257 25 0 0.0 3.2 0.00 2.62 2.41 92 1019.6
20260902181757 25 0 0.0 1.6 0.00 2.62 2.41 92 1020.0
20260902181251 25 0 0.0 3.2 0.00 2.62 2.41 92 1020.0
20260902180245 25 355 0.0 3.2 0.00 2.62 2.41 91 1020.0
20260902175249 25 355 0.0 3.2 0.00 2.62 2.41 91 1019.8
20260902174748 25 345 0.0 3.2 0.00 2.62 2.41 91 1020.1
20260902173749 25 344 0.0 3.2 0.00 2.62 2.41 91 1020.0
20260902173244 25 350 0.0 3.2 0.00 2.62 2.41 92 1019.8
20260902172741 25 350 0.0 3.2 0.00 2.62 2.41 92 1019.8
20260902172248 25 350 0.0 3.2 0.00 2.62 2.41 92 1019.7
20260902171745 25 350 0.0 3.2 0.00 2.62 2.41 92 1019.7
20260902171243 25 350 0.0 3.2 0.00 2.62 2.41 92 1019.8
20260902170753 25 355 0.0 3.2 0.00 2.62 2.41 93 1019.8
20260902170245 25 5 0.0 3.2 0.00 2.62 2.41 92 1019.6